Weather History for Merrill, WI

Change the Weather History Date:

Wednesday, October 9, 2013

  Actual Average Record
Temperature  
Mean Temperature 58 °F -  
Max Temperature 71 °F 57 °F 85 °F (1909)
Min Temperature 41 °F 35 °F 21 °F (1989)
Degree Days  
Heating Degree Days 7    
Growing Degree Days 8 (Base 50)    
Moisture  
Dew Point 47 °F    
Average Humidity 67    
Maximum Humidity 97    
Minimum Humidity 46    
Precipitation  
Precipitation 0.00 in - - ()
Sea Level Pressure  
Sea Level Pressure 30.12 in    
Wind  
Wind Speed 6 mph (SSW)    
Max Wind Speed 16 mph    
Max Gust Speed 21 mph    
Visibility 10 miles    
Events      
Averages and records for this station are not official NWS values.
T = Trace of Precipitation, MM = Missing Value Source: NWS Daily Summary

Daily Weather History Graph

Daily Weather History Graph

Search for Another Location

Airport:

Trip Planner

Search our weather history database for the weather conditions in past years. The results will help you decide how hot, cold, wet, or windy it might be!

Date:

Astronomy

Oct. 09, 2013 Rise Set
Actual Time 7:07 AM CDT 6:23 PM CDT
Civil Twilight 6:37 AM CDT 6:53 PM CDT
Nautical Twilight 6:03 AM CDT 7:27 PM CDT
Astronomical Twilight 5:29 AM CDT 8:01 PM CDT
Moon 12:13 PM CDT (10/9) 9:47 PM CDT (10/9)
Length of Visible Light 12h 15m
Length of Day
11h 16m
Waxing Crescent, 25% of the Moon is Illuminated
Oct 9
Waxing Crescent
Oct 11
First Quarter
Oct 18
Full
Oct 26
Last Quarter
Nov 3
New

Hourly Weather History & Observations

Time (CDT) Temp. Dew Point Humidity Pressure Visibility Wind Dir Wind Speed Gust Speed Precip Events Conditions
12:15 AM 59.7 °F 45.0 °F 58% 30.06 in 10.0 mi South 3.5 mph - N/A   Clear
12:35 AM 59.4 °F 45.0 °F 59% 30.06 in 10.0 mi South 6.9 mph - N/A   Clear
12:55 AM 59.4 °F 45.0 °F 59% 30.06 in 10.0 mi South 4.6 mph - N/A   Clear
1:15 AM 58.5 °F 45.1 °F 61% 30.07 in 10.0 mi South 6.9 mph - N/A   Clear
1:35 AM 58.5 °F 45.0 °F 61% 30.07 in 10.0 mi South 3.5 mph - N/A   Clear
1:55 AM 58.1 °F 45.0 °F 62% 30.07 in 10.0 mi South 5.8 mph - N/A   Clear
2:15 AM 58.1 °F 45.1 °F 62% 30.08 in 10.0 mi South 3.5 mph - N/A   Clear
2:35 AM 57.6 °F 45.3 °F 64% 30.08 in 10.0 mi SSW 6.9 mph - N/A   Clear
2:55 AM 57.2 °F 45.5 °F 65% 30.09 in 10.0 mi SSW 5.8 mph - N/A   Clear
3:15 AM 57.2 °F 45.5 °F 65% 30.09 in 10.0 mi SSW 4.6 mph - N/A   Clear
3:35 AM 56.5 °F 45.5 °F 67% 30.10 in 10.0 mi SSW 4.6 mph - N/A   Clear
3:55 AM 55.9 °F 45.5 °F 68% 30.10 in 10.0 mi South 3.5 mph - N/A   Clear
4:15 AM 54.5 °F 45.5 °F 72% 30.10 in 10.0 mi SSE 4.6 mph - N/A   Clear
4:35 AM 53.6 °F 45.5 °F 74% 30.11 in 10.0 mi South 4.6 mph - N/A   Clear
4:55 AM 52.9 °F 45.5 °F 76% 30.11 in 10.0 mi SSE 4.6 mph - N/A   Clear
5:15 AM 52.3 °F 45.5 °F 78% 30.11 in 10.0 mi SSE 4.6 mph - N/A   Clear
5:35 AM 52.7 °F 45.5 °F 76% 30.11 in 10.0 mi SSE 5.8 mph - N/A   Clear
5:55 AM 52.2 °F 45.5 °F 78% 30.12 in 10.0 mi South 4.6 mph - N/A   Clear
6:15 AM 52.7 °F 45.7 °F 77% 30.12 in 10.0 mi South 5.8 mph - N/A   Clear
6:35 AM 52.5 °F 45.9 °F 78% 30.12 in 10.0 mi South 5.8 mph - N/A   Clear
6:55 AM 52.9 °F 45.9 °F 77% 30.12 in 10.0 mi South 5.8 mph - N/A   Clear
7:15 AM 52.7 °F 45.9 °F 78% 30.12 in 10.0 mi South 5.8 mph - N/A   Clear
7:35 AM 53.1 °F 46.0 °F 77% 30.12 in 10.0 mi South 4.6 mph - N/A   Clear
7:55 AM 54.5 °F 46.4 °F 74% 30.12 in 10.0 mi South 5.8 mph - N/A   Clear
8:15 AM 55.8 °F 46.8 °F 72% 30.12 in 10.0 mi South 3.5 mph - N/A   Clear
8:35 AM 57.2 °F 47.3 °F 69% 30.13 in 10.0 mi SSW 6.9 mph - N/A   Clear
8:55 AM 58.3 °F 47.5 °F 67% 30.13 in 10.0 mi SSW 5.8 mph - N/A   Clear
9:15 AM 59.5 °F 48.4 °F 67% 30.14 in 10.0 mi SSW 6.9 mph - N/A   Clear
9:35 AM 60.1 °F 48.9 °F 67% 30.14 in 10.0 mi SW 6.9 mph - N/A   Clear
9:55 AM 61.3 °F 49.1 °F 64% 30.15 in 10.0 mi SSW 9.2 mph - N/A   Clear
10:15 AM 61.9 °F 49.3 °F 63% 30.15 in 10.0 mi SW 9.2 mph - N/A   Clear
10:35 AM 63.0 °F 50.4 °F 63% 30.15 in 10.0 mi SSW 6.9 mph - N/A   Clear
10:55 AM 64.6 °F 50.5 °F 60% 30.15 in 10.0 mi SW 11.5 mph 17.3 mph N/A   Clear
11:15 AM 65.5 °F 50.4 °F 58% 30.15 in 10.0 mi SW 8.1 mph 16.1 mph N/A   Clear
11:35 AM 66.6 °F 51.1 °F 57% 30.15 in 10.0 mi SSW 11.5 mph - N/A   Clear
11:55 AM 67.3 °F 51.1 °F 56% 30.15 in 10.0 mi SW 10.4 mph - N/A   Clear
12:15 PM 67.6 °F 50.4 °F 54% 30.15 in 10.0 mi SW 13.8 mph 18.4 mph N/A   Clear
12:35 PM 68.4 °F 50.5 °F 53% 30.15 in 10.0 mi SW 8.1 mph - N/A   Clear
12:55 PM 68.5 °F 50.5 °F 53% 30.14 in 10.0 mi SW 16.1 mph 20.7 mph N/A   Clear
1:15 PM 69.4 °F 50.5 °F 51% 30.14 in 10.0 mi SSW 10.4 mph 16.1 mph N/A   Clear
1:35 PM 70.0 °F 49.8 °F 49% 30.13 in 10.0 mi SW 11.5 mph 18.4 mph N/A   Clear
1:55 PM 70.3 °F 49.8 °F 48% 30.13 in 10.0 mi SW 15.0 mph - N/A   Clear
2:15 PM 69.8 °F 49.6 °F 49% 30.12 in 10.0 mi SW 10.4 mph - N/A   Clear
2:35 PM 70.2 °F 49.5 °F 48% 30.12 in 10.0 mi SW 10.4 mph 16.1 mph N/A   Clear
2:55 PM 70.7 °F 49.8 °F 48% 30.12 in 10.0 mi SW 11.5 mph 16.1 mph N/A   Clear
3:15 PM 70.9 °F 50.2 °F 48% 30.11 in 10.0 mi SSW 11.5 mph - N/A   Clear
3:55 PM 70.2 °F 49.6 °F 48% 30.11 in 10.0 mi SSW 10.4 mph 17.3 mph N/A   Clear
4:15 PM 68.9 °F 48.0 °F 47% 30.12 in 10.0 mi SSW 8.1 mph - N/A   Clear
4:35 PM 70.0 °F 48.4 °F 46% 30.12 in 10.0 mi SSW 8.1 mph - N/A   Clear
4:55 PM 69.6 °F 48.0 °F 46% 30.12 in 10.0 mi South 8.1 mph - N/A   Clear
5:15 PM 68.9 °F 48.4 °F 48% 30.12 in 10.0 mi SW 5.8 mph - N/A   Clear
5:35 PM 68.2 °F 47.7 °F 48% 30.12 in 10.0 mi SSW 5.8 mph - N/A   Clear
5:55 PM 66.4 °F 48.6 °F 53% 30.12 in 10.0 mi SSW 4.6 mph - N/A   Clear
6:15 PM 63.0 °F 49.1 °F 61% 30.12 in 10.0 mi Calm Calm - N/A   Clear
6:55 PM 56.3 °F 50.0 °F 79% 30.12 in 10.0 mi Calm Calm - N/A   Clear
7:15 PM 53.2 °F 48.2 °F 83% 30.12 in 10.0 mi Calm Calm - N/A   Clear
7:35 PM 52.5 °F 48.2 °F 85% 30.12 in 10.0 mi SSE 3.5 mph - N/A   Clear
7:55 PM 51.3 °F 47.3 °F 86% 30.12 in 10.0 mi SSE 3.5 mph - N/A   Clear
8:15 PM 50.0 °F 46.9 °F 89% 30.12 in 10.0 mi Calm Calm - N/A   Clear
8:35 PM 52.3 °F 47.8 °F 85% 30.13 in 10.0 mi Calm Calm - N/A   Clear
8:55 PM 50.7 °F 46.8 °F 86% 30.12 in 10.0 mi Calm Calm - N/A   Clear
9:15 PM 52.2 °F 46.9 °F 82% 30.12 in 10.0 mi SSE 3.5 mph - N/A   Clear
9:35 PM 53.4 °F 47.5 °F 80% 30.13 in 10.0 mi South 4.6 mph - N/A   Clear
9:55 PM 52.7 °F 47.1 °F 81% 30.13 in 10.0 mi SSE 4.6 mph - N/A   Clear
10:15 PM 53.6 °F 47.7 °F 80% 30.13 in 10.0 mi SSE 3.5 mph - N/A   Clear
10:35 PM 52.0 °F 46.8 °F 82% 30.13 in 10.0 mi Calm Calm - N/A   Clear
10:55 PM 48.2 °F 45.7 °F 91% 30.13 in 10.0 mi Calm Calm - N/A   Clear
11:15 PM 46.4 °F 44.4 °F 93% 30.13 in 10.0 mi Calm Calm - N/A   Clear
11:55 PM 41.5 °F 40.6 °F 97% 30.13 in 10.0 mi Calm Calm - N/A   Clear